SCP
0 0 0 0 0 0 0 0 0 0 0 0 0 0 0 0 0 0 0 0 0 0 0 0 0 0 0 0 0 0 0 0 0 0 0 0 0 0 0 1 2 3 2 1 0
0 0 0 0 0 0 0 0 0 0 0 0 0 0 0 0 0 0 0 0 0 0 0 0 0 0 0 0 0 0 0 0 0 0 0 0 0 0 0 0 2 1 1 0 0
0 0 0 0 0 0 0 0 0 0 0 0 0 0 0 0 0 -0 0 0 0 0 0 0 0 0 0 0 0 0 0 0 0 0 0 0 0 -0 -0 -0 -0 0 0 0 0
0 0 0 0 0 0 0 0 0 0 0 0 0 0 0 0 0 0 0 0 0 0 0 0 0 0 0 0 0 0 0 0 0 0 0 0 0 -0 0 -0 -0 0 0 -0 -0
0 0 0 0 0 0 0 0 0 0 0 0 0 0 0 0 0 0 0 0 0 0 0 0 0 0 0 0 0 0 0 0 0 0 0 0 0 0 0 0 0 0 -0 0 -0
0 0 0 0 0 0 0 0 0 0 0 0 0 0 0 0 0 0 0 0 0 0 0 0 0 0 0 0 0 0 0 0 0 0 0 0 0 0 0 0 0 1 0 0 -0
0 0 0 0 0 0 0 0 0 0 0 0 0 0 0 0 0 0 0 0 0 0 0 0 0 0 0 0 0 0 0 0 0 0 0 0 0 0 0 0 1 0 1 0 0
0 0 0 0 0 0 0 0 -0 -0 0 0 0 0 0 0 0 0 0 0 0 0 0 0 0 0 0 0 0 0 0 0 0 0 0 0 0 0 0 0 1 2 1 0 0
0 0 0 0 0 0 0 -0 -0 -0 -0 0 0 0 0 0 0 0 0 0 0 0 0 0 0 0 0 0 0 0 0 0 0 0 0 0 0 0 0 0 0 0 0 0 0
0 0 0 0 -0 0 0 -0 0 0 0 0 0 0 0 0 -0 -0 0 0 0 0 0 0 0 0 0 0 0 0 0 0 0 0 0 0 0 0 0 0 0 0 0 0 0
0 0 0 0 -0 0 0 -0 0 0 0 0 0 0 0 0 0 0 0 0 0 0 0 0 0 0 0 0 0 0 0 0 0 0 0 0 0 0 0 0 0 0 0 0 0
0 0 0 -0 -0 -0 0 0 0 0 0 0 0 0 0 0 0 -0 0 0 0 0 0 0 0 0 0 0 0 0 0 0 0 0 0 0 0 0 0 0 0 0 0 0 0
0 0 0 -0 -0 0 0 0 0 0 0 0 0 0 0 0 0 0 -0 0 0 0 0 0 0 0 0 0 0 0 0 0 0 0 0 0 0 0 0 0 0 1 0 0 0
0 0 0 -0 0 0 0 0 0 0 0 0 0 0 0 0 0 -0 0 0 0 0 0 0 0 0 0 0 0 0 0 0 0 0 0 0 0 0 0 0 0 0 1 0 0
0 0 -0 0 0 0 0 0 0 0 0 0 0 0 -0 0 0 -0 0 0 0 0 0 0 0 0 0 0 0 0 0 0 0 0 0 0 0 0 0 0 0 0 -0 -0 -0
0 0 -0 0 0 0 0 0 0 0 0 0 0 0 0 0 -0 0 -0 0 0 0 0 0 0 0 0 0 0 0 0 0 0 0 0 0 0 0 0 0 0 0 0 -0 0
0 0 0 0 0 0 0 0 0 0 0 0 0 0 0 0 0 -0 -0 -0 0 0 0 0 0 0 0 0 0 0 0 0 0 0 0 0 0 0 0 0 0 0 0 0 0
0 -0 0 0 0 0 0 0 0 0 0 0 0 0 0 0 0 0 0 -0 0 0 0 0 0 0 0 0 0 0 0 0 0 0 0 0 0 0 0 0 0 0 0 0 0
0 0 0 0 0 0 0 0 0 0 0 0 0 0 0 0 0 -0 0 -0 0 0 0 0 0 0 0 0 0 0 0 0 0 0 0 0 0 0 0 -0 0 0 0 0 0
0 0 0 0 0 0 0 0 0 0 0 0 0 0 0 0 0 0 0 0 0 -0 0 0 0 0 0 0 0 0 0 0 0 0 0 0 0 0 0 -0 0 0 0 0 0
0 0 0 0 0 0 0 0 0 0 -0 0 0 0 -0 0 0 0 0 -0 -0 0 0 0 0 0 0 0 0 0 0 0 0 0 0 0 0 0 0 0 0 0 0 0 0
0 0 0 0 0 0 0 0 0 0 -0 0 0 -0 -0 -0 -0 -0 -0 -0 -0 0 0 0 0 0 0 0 0 0 0 0 0 0 0 -0 0 0 0 0 0 0 0 0 0
0 0 0 0 0 0 0 0 0 0 -0 -0 0 0 -0 -0 -0 -0 -0 -0 -0 -0 -0 0 0 0 0 0 0 0 0 0 0 0 0 0 0 0 0 0 0 0 0 0 0
0 0 0 0 0 0 0 0 0 0 0 -0 -0 0 -0 -0 0 -0 -0 0 0 -0 -0 0 0 -0 0 -0 0 0 0 0 0 -0 0 0 0 0 0 0 0 0 1 0 1
0 0 0 0 0 0 0 0 0 0 0 0 0 -0 -0 -0 -0 0 0 -0 0 -0 -0 0 0 -0 0 0 0 0 0 0 0 -0 -0 0 0 0 0 1 1 1 0 0 0
0 0 0 0 0 0 0 0 0 0 0 0 -0 0 0 -0 -0 -0 -0 0 0 0 0 0 0 -0 -0 0 0 0 0 0 0 0 -0 0 0 0 1 1 0 0 0 0 0
0 0 0 0 0 0 0 0 0 0 0 0 -0 0 0 0 0 -0 -0 -0 -0 0 0 0 0 -0 0 0 0 -0 0 0 -0 -0 -0 0 0 0 0 0 0 0 0 0 0
Wind_Speed_500mb
46 45 46 47 46 46 46 45 43 41 46 50 51 48 46 50 57 52 60 60 39 20 17 26 21 21 25 38 38 39 15 26 41 42 35 43 21 56 57 52 19 13 81 44 15
49 50 50 51 51 48 44 44 44 41 40 43 45 46 47 47 57 64 51 46 44 27 35 21 28 24 28 30 29 17 21 50 11 25 25 45 40 51 12 41 47 64 74 79 32
54 54 53 53 52 52 51 48 47 44 42 36 38 39 40 42 50 19 21 22 21 45 45 32 30 35 49 43 45 24 43 17 40 52 55 48 52 44 21 12 61 68 101 100 93
59 60 61 59 59 57 55 53 50 46 43 39 35 32 33 27 15 19 17 35 32 24 51 39 35 27 7 24 54 29 49 52 42 52 64 42 63 31 27 20 31 68 96 97 113
66 69 67 62 61 57 52 51 48 45 42 40 35 26 31 29 50 22 24 27 24 23 52 49 43 35 16 14 38 45 32 46 50 67 70 63 50 42 49 40 31 39 75 90 104
76 76 70 64 56 54 50 45 42 39 36 35 33 27 33 42 62 50 50 34 27 20 30 46 31 37 26 31 25 18 49 40 53 58 64 42 48 43 60 50 49 76 59 78 85
79 73 69 66 62 62 54 46 37 39 32 28 29 24 36 72 40 39 41 44 47 35 30 39 49 38 25 26 46 45 24 21 41 45 34 52 36 39 49 34 22 24 54 86 67
77 68 68 67 62 56 46 33 22 23 20 18 17 13 29 37 40 47 41 52 41 37 42 41 35 39 47 36 38 17 15 19 27 35 44 25 36 43 47 28 31 63 51 39 63
72 63 67 62 54 50 31 18 14 15 20 2 7 9 28 40 31 49 25 45 33 24 34 37 34 36 29 18 12 13 16 30 26 30 20 21 30 41 57 36 20 54 78 104 51
69 57 60 45 47 47 33 21 20 10 18 10 2 10 22 37 48 26 28 32 29 20 19 41 19 10 18 17 24 23 27 18 29 28 34 34 26 35 50 30 23 43 58 61 73
65 52 51 34 38 35 40 20 14 6 7 15 14 20 33 37 33 23 21 25 29 8 3 16 9 24 33 34 19 14 23 23 16 34 21 35 30 25 28 32 44 51 42 40 25
62 50 42 25 31 27 28 22 17 18 19 23 34 44 43 26 20 11 13 27 13 6 12 7 22 16 19 25 32 33 29 25 33 25 19 31 36 25 18 16 22 55 48 42 34
57 47 34 32 21 30 18 18 18 23 7 21 34 24 22 8 3 13 8 24 19 16 22 13 12 29 33 30 35 31 28 30 24 31 32 25 30 21 15 27 67 58 62 57 59
48 42 37 31 19 26 23 17 25 17 4 21 21 15 18 19 9 9 5 1 6 19 23 15 30 32 33 36 28 29 36 37 30 25 19 29 22 27 23 15 40 43 51 57 58
41 34 31 25 30 25 22 23 29 2 8 28 17 18 21 18 5 9 4 8 14 17 11 12 15 20 34 27 27 32 29 30 29 7 10 16 13 25 33 31 13 28 41 35 30
41 26 33 26 34 26 28 36 18 3 9 13 13 21 6 15 5 3 4 8 12 12 22 28 25 13 16 21 25 20 24 9 9 0 4 18 17 28 17 42 12 26 46 43 40
37 17 31 32 25 19 36 35 6 10 23 18 16 26 11 7 5 4 3 9 7 7 11 22 26 13 19 15 22 26 10 7 4 2 8 16 7 22 37 42 24 31 54 64 59
28 14 24 26 29 28 33 5 13 11 5 16 25 34 13 7 8 14 8 14 22 14 11 15 8 24 30 24 10 18 15 10 12 8 14 16 13 19 39 52 55 68 79 76 63
29 14 19 35 31 32 31 8 5 6 13 16 26 6 5 9 8 14 5 6 10 24 7 7 11 25 16 16 15 12 10 23 8 7 0 8 15 22 40 38 24 54 65 81 86
40 17 22 31 27 30 11 6 11 14 14 11 7 10 11 16 14 9 13 13 10 15 11 10 3 8 12 14 19 12 29 23 11 16 10 20 15 27 18 35 22 24 31 60 78
32 16 21 26 11 13 7 8 17 25 17 9 12 9 15 15 22 11 10 12 23 18 16 11 7 8 15 12 17 6 5 5 4 4 4 2 14 14 31 21 24 39 61 71 51
24 8 24 33 15 4 3 3 19 23 17 8 15 21 23 35 27 20 19 21 32 11 13 3 4 9 14 14 15 12 14 11 7 1 4 11 10 19 9 20 18 32 57 64 52
47 13 20 34 8 9 13 9 5 14 9 9 13 16 32 21 14 15 9 11 35 6 7 5 6 4 4 11 11 6 9 11 15 4 4 5 9 12 12 9 29 40 54 65 48
20 8 18 19 39 14 15 17 11 15 5 18 19 21 34 20 22 14 13 9 29 20 17 6 8 10 14 10 8 12 24 14 13 9 5 6 21 6 8 4 23 73 80 77 67
20 11 19 9 18 31 31 13 18 12 4 18 10 27 24 12 25 27 24 32 6 26 12 8 7 10 13 26 30 31 20 14 12 20 5 11 18 10 15 23 44 65 77 87 85
19 16 23 45 41 28 8 15 18 21 9 7 8 22 22 13 14 29 29 19 8 23 15 11 7 12 8 38 38 28 24 19 25 33 34 9 17 5 51 73 64 59 73 72 84
28 30 20 24 22 20 21 33 27 25 2 11 14 13 21 18 37 47 54 49 39 20 13 9 6 10 11 14 10 14 16 14 17 45 40 7 7 12 32 44 51 50 70 73 73
Wind_Direction_500mb
347 341 336 332 330 322 317 311 308 310 300 294 293 294 299 303 302 294 277 271 269 252 242 236 208 214 221 237 241 238 233 238 234 225 237 268 275 266 257 110 88 84 135 133 91
347 344 341 335 331 325 316 307 297 292 297 305 300 292 292 300 304 294 297 275 255 230 247 247 247 230 239 224 227 203 219 234 258 250 248 269 261 274 357 94 102 118 130 142 146
350 344 340 333 327 322 317 313 311 309 298 288 296 303 303 301 312 297 26 17 257 217 232 235 238 254 235 237 218 244 237 254 241 256 266 273 283 292 303 136 149 155 154 163 173
346 342 337 330 326 320 316 315 314 308 304 297 279 293 297 303 265 157 42 13 1 234 223 226 243 259 261 228 229 233 244 247 257 250 263 271 278 287 288 275 171 170 176 176 176
346 343 338 332 328 321 317 314 310 309 305 303 295 272 287 255 247 220 293 290 305 332 207 210 223 230 236 232 228 233 247 252 253 260 270 280 274 278 283 280 184 170 168 184 179
350 346 343 342 338 332 322 319 316 312 305 301 301 269 273 264 268 271 271 290 281 268 200 210 218 222 278 252 245 271 233 255 254 253 256 265 277 286 271 286 241 163 187 186 190
352 350 350 345 338 330 321 316 315 311 302 298 298 282 270 254 260 270 263 262 257 271 217 216 224 227 223 277 268 260 279 252 245 248 253 252 277 268 278 259 206 148 180 186 201
353 352 351 345 340 338 333 319 318 320 304 288 295 293 263 332 318 296 266 259 263 257 245 229 214 236 255 269 282 275 256 255 246 239 245 221 256 266 276 218 161 163 164 233 211
354 353 351 350 1 1 3 35 21 39 19 57 357 227 272 331 305 291 273 254 267 266 231 218 230 239 243 244 286 248 243 237 249 223 223 210 240 258 267 244 204 163 173 187 176
354 352 355 3 18 29 32 1 359 28 25 35 319 281 269 321 326 291 254 241 254 279 223 219 217 209 240 205 213 211 222 242 237 242 217 231 229 243 255 253 219 165 181 189 195
354 351 355 9 21 12 24 12 7 342 278 236 260 252 292 321 358 318 220 213 236 309 270 210 197 209 220 222 246 255 254 231 253 240 195 231 246 231 223 236 251 163 167 173 157
353 351 354 354 16 5 20 31 11 322 301 296 271 269 270 280 1 340 197 187 175 199 256 289 233 231 231 226 237 245 244 244 245 244 203 221 248 241 207 229 224 138 157 171 158
354 356 358 4 359 360 28 4 343 343 282 316 321 310 280 194 77 323 70 203 162 223 254 226 239 229 232 220 226 239 245 248 226 241 229 213 249 230 235 219 104 117 130 137 155
355 0 358 7 12 0 341 326 307 338 279 0 342 359 87 135 59 319 323 106 152 220 233 234 251 217 234 221 213 229 237 244 261 221 219 204 236 232 236 255 125 144 148 154 149
355 359 13 340 341 348 337 324 318 34 47 330 313 312 20 68 97 344 240 324 187 186 203 226 240 254 227 223 222 238 245 240 255 249 259 225 221 221 234 239 156 138 158 158 180
352 348 347 357 343 4 334 325 329 346 8 332 307 327 5 37 30 281 6 283 271 227 234 273 267 219 253 236 239 267 247 303 264 161 307 253 213 236 233 236 140 136 158 168 173
349 352 334 334 346 343 335 331 7 47 342 315 334 332 1 332 95 186 217 221 208 138 218 248 243 243 225 244 260 251 69 17 305 138 203 307 2 241 223 253 162 161 164 167 165
350 331 329 354 352 351 320 313 34 347 337 296 320 324 277 230 115 174 230 263 232 282 270 220 178 190 208 227 230 214 132 136 184 170 229 242 203 243 239 245 165 174 168 165 167
357 351 351 348 350 318 310 34 321 303 294 314 322 304 223 204 238 193 198 267 276 192 248 290 200 173 193 193 187 185 144 180 250 96 166 191 245 297 282 256 202 170 166 167 167
351 358 6 358 345 349 47 313 348 212 322 309 281 294 330 190 188 209 193 236 253 220 190 296 326 198 214 184 244 224 195 193 213 174 177 208 215 220 217 223 185 151 174 180 184
359 317 350 352 68 85 94 348 314 354 344 315 295 294 294 295 182 182 257 248 199 178 195 243 242 204 179 197 239 274 183 80 217 184 70 182 228 240 229 185 162 151 186 187 178
4 318 347 1 17 38 79 259 7 344 350 289 281 265 275 320 281 201 218 234 191 192 199 287 305 167 217 194 228 250 292 121 130 3 234 164 279 284 293 163 134 133 125 166 177
337 284 350 14 20 358 319 341 79 22 334 351 305 310 319 309 313 193 248 204 178 131 174 324 293 135 257 298 303 275 268 140 112 81 30 61 274 325 130 161 136 144 137 140 151
333 331 337 350 354 344 319 300 352 47 15 337 293 335 343 323 335 349 291 184 147 171 206 122 246 168 194 216 214 252 256 167 109 84 45 258 295 91 174 202 79 72 82 84 92
360 350 10 308 325 309 300 311 344 359 140 34 329 1 340 314 335 1 351 329 132 161 202 162 276 351 212 193 214 237 232 208 128 120 65 292 298 295 357 81 90 89 83 76 72
12 348 322 297 301 299 311 357 329 335 1 6 307 326 319 305 9 310 317 330 311 330 312 21 312 0 288 203 218 221 226 241 162 147 203 292 264 38 68 68 71 85 82 80 85
353 338 307 289 309 333 346 328 341 347 29 208 343 326 310 334 317 286 279 273 266 289 292 358 91 18 293 319 304 211 208 237 165 171 148 97 249 87 68 73 60 69 91 96 96
Wind_Speed_850mb
46 45 46 47 46 46 46 45 43 41 46 50 51 48 46 50 57 52 60 60 39 20 17 26 21 21 25 38 38 39 15 26 41 42 35 43 21 56 57 52 19 13 81 44 15
49 50 50 51 51 48 44 44 44 41 40 43 45 46 47 47 57 64 51 46 44 27 35 21 28 24 28 30 29 17 21 50 11 25 25 45 40 51 12 41 47 64 74 79 32
54 54 53 53 52 52 51 48 47 44 42 36 38 39 40 42 50 19 21 22 21 45 45 32 30 35 49 43 45 24 43 17 40 52 55 48 52 44 21 12 61 68 101 100 93
59 60 61 59 59 57 55 53 50 46 43 39 35 32 33 27 15 19 17 35 32 24 51 39 35 27 7 24 54 29 49 52 42 52 64 42 63 31 27 20 31 68 96 97 113
66 69 67 62 61 57 52 51 48 45 42 40 35 26 31 29 50 22 24 27 24 23 52 49 43 35 16 14 38 45 32 46 50 67 70 63 50 42 49 40 31 39 75 90 104
76 76 70 64 56 54 50 45 42 39 36 35 33 27 33 42 62 50 50 34 27 20 30 46 31 37 26 31 25 18 49 40 53 58 64 42 48 43 60 50 49 76 59 78 85
79 73 69 66 62 62 54 46 37 39 32 28 29 24 36 72 40 39 41 44 47 35 30 39 49 38 25 26 46 45 24 21 41 45 34 52 36 39 49 34 22 24 54 86 67
77 68 68 67 62 56 46 33 22 23 20 18 17 13 29 37 40 47 41 52 41 37 42 41 35 39 47 36 38 17 15 19 27 35 44 25 36 43 47 28 31 63 51 39 63
72 63 67 62 54 50 31 18 14 15 20 2 7 9 28 40 31 49 25 45 33 24 34 37 34 36 29 18 12 13 16 30 26 30 20 21 30 41 57 36 20 54 78 104 51
69 57 60 45 47 47 33 21 20 10 18 10 2 10 22 37 48 26 28 32 29 20 19 41 19 10 18 17 24 23 27 18 29 28 34 34 26 35 50 30 23 43 58 61 73
65 52 51 34 38 35 40 20 14 6 7 15 14 20 33 37 33 23 21 25 29 8 3 16 9 24 33 34 19 14 23 23 16 34 21 35 30 25 28 32 44 51 42 40 25
62 50 42 25 31 27 28 22 17 18 19 23 34 44 43 26 20 11 13 27 13 6 12 7 22 16 19 25 32 33 29 25 33 25 19 31 36 25 18 16 22 55 48 42 34
57 47 34 32 21 30 18 18 18 23 7 21 34 24 22 8 3 13 8 24 19 16 22 13 12 29 33 30 35 31 28 30 24 31 32 25 30 21 15 27 67 58 62 57 59
48 42 37 31 19 26 23 17 25 17 4 21 21 15 18 19 9 9 5 1 6 19 23 15 30 32 33 36 28 29 36 37 30 25 19 29 22 27 23 15 40 43 51 57 58
41 34 31 25 30 25 22 23 29 2 8 28 17 18 21 18 5 9 4 8 14 17 11 12 15 20 34 27 27 32 29 30 29 7 10 16 13 25 33 31 13 28 41 35 30
41 26 33 26 34 26 28 36 18 3 9 13 13 21 6 15 5 3 4 8 12 12 22 28 25 13 16 21 25 20 24 9 9 0 4 18 17 28 17 42 12 26 46 43 40
37 17 31 32 25 19 36 35 6 10 23 18 16 26 11 7 5 4 3 9 7 7 11 22 26 13 19 15 22 26 10 7 4 2 8 16 7 22 37 42 24 31 54 64 59
28 14 24 26 29 28 33 5 13 11 5 16 25 34 13 7 8 14 8 14 22 14 11 15 8 24 30 24 10 18 15 10 12 8 14 16 13 19 39 52 55 68 79 76 63
29 14 19 35 31 32 31 8 5 6 13 16 26 6 5 9 8 14 5 6 10 24 7 7 11 25 16 16 15 12 10 23 8 7 0 8 15 22 40 38 24 54 65 81 86
40 17 22 31 27 30 11 6 11 14 14 11 7 10 11 16 14 9 13 13 10 15 11 10 3 8 12 14 19 12 29 23 11 16 10 20 15 27 18 35 22 24 31 60 78
32 16 21 26 11 13 7 8 17 25 17 9 12 9 15 15 22 11 10 12 23 18 16 11 7 8 15 12 17 6 5 5 4 4 4 2 14 14 31 21 24 39 61 71 51
24 8 24 33 15 4 3 3 19 23 17 8 15 21 23 35 27 20 19 21 32 11 13 3 4 9 14 14 15 12 14 11 7 1 4 11 10 19 9 20 18 32 57 64 52
47 13 20 34 8 9 13 9 5 14 9 9 13 16 32 21 14 15 9 11 35 6 7 5 6 4 4 11 11 6 9 11 15 4 4 5 9 12 12 9 29 40 54 65 48
20 8 18 19 39 14 15 17 11 15 5 18 19 21 34 20 22 14 13 9 29 20 17 6 8 10 14 10 8 12 24 14 13 9 5 6 21 6 8 4 23 73 80 77 67
20 11 19 9 18 31 31 13 18 12 4 18 10 27 24 12 25 27 24 32 6 26 12 8 7 10 13 26 30 31 20 14 12 20 5 11 18 10 15 23 44 65 77 87 85
19 16 23 45 41 28 8 15 18 21 9 7 8 22 22 13 14 29 29 19 8 23 15 11 7 12 8 38 38 28 24 19 25 33 34 9 17 5 51 73 64 59 73 72 84
28 30 20 24 22 20 21 33 27 25 2 11 14 13 21 18 37 47 54 49 39 20 13 9 6 10 11 14 10 14 16 14 17 45 40 7 7 12 32 44 51 50 70 73 73
Wind_Direction_850mb
347 341 336 332 330 322 317 311 308 310 300 294 293 294 299 303 302 294 277 271 269 252 242 236 208 214 221 237 241 238 233 238 234 225 237 268 275 266 257 110 88 84 135 133 91
347 344 341 335 331 325 316 307 297 292 297 305 300 292 292 300 304 294 297 275 255 230 247 247 247 230 239 224 227 203 219 234 258 250 248 269 261 274 357 94 102 118 130 142 146
350 344 340 333 327 322 317 313 311 309 298 288 296 303 303 301 312 297 26 17 257 217 232 235 238 254 235 237 218 244 237 254 241 256 266 273 283 292 303 136 149 155 154 163 173
346 342 337 330 326 320 316 315 314 308 304 297 279 293 297 303 265 157 42 13 1 234 223 226 243 259 261 228 229 233 244 247 257 250 263 271 278 287 288 275 171 170 176 176 176
346 343 338 332 328 321 317 314 310 309 305 303 295 272 287 255 247 220 293 290 305 332 207 210 223 230 236 232 228 233 247 252 253 260 270 280 274 278 283 280 184 170 168 184 179
350 346 343 342 338 332 322 319 316 312 305 301 301 269 273 264 268 271 271 290 281 268 200 210 218 222 278 252 245 271 233 255 254 253 256 265 277 286 271 286 241 163 187 186 190
352 350 350 345 338 330 321 316 315 311 302 298 298 282 270 254 260 270 263 262 257 271 217 216 224 227 223 277 268 260 279 252 245 248 253 252 277 268 278 259 206 148 180 186 201
353 352 351 345 340 338 333 319 318 320 304 288 295 293 263 332 318 296 266 259 263 257 245 229 214 236 255 269 282 275 256 255 246 239 245 221 256 266 276 218 161 163 164 233 211
354 353 351 350 1 1 3 35 21 39 19 57 357 227 272 331 305 291 273 254 267 266 231 218 230 239 243 244 286 248 243 237 249 223 223 210 240 258 267 244 204 163 173 187 176
354 352 355 3 18 29 32 1 359 28 25 35 319 281 269 321 326 291 254 241 254 279 223 219 217 209 240 205 213 211 222 242 237 242 217 231 229 243 255 253 219 165 181 189 195
354 351 355 9 21 12 24 12 7 342 278 236 260 252 292 321 358 318 220 213 236 309 270 210 197 209 220 222 246 255 254 231 253 240 195 231 246 231 223 236 251 163 167 173 157
353 351 354 354 16 5 20 31 11 322 301 296 271 269 270 280 1 340 197 187 175 199 256 289 233 231 231 226 237 245 244 244 245 244 203 221 248 241 207 229 224 138 157 171 158
354 356 358 4 359 360 28 4 343 343 282 316 321 310 280 194 77 323 70 203 162 223 254 226 239 229 232 220 226 239 245 248 226 241 229 213 249 230 235 219 104 117 130 137 155
355 0 358 7 12 0 341 326 307 338 279 0 342 359 87 135 59 319 323 106 152 220 233 234 251 217 234 221 213 229 237 244 261 221 219 204 236 232 236 255 125 144 148 154 149
355 359 13 340 341 348 337 324 318 34 47 330 313 312 20 68 97 344 240 324 187 186 203 226 240 254 227 223 222 238 245 240 255 249 259 225 221 221 234 239 156 138 158 158 180
352 348 347 357 343 4 334 325 329 346 8 332 307 327 5 37 30 281 6 283 271 227 234 273 267 219 253 236 239 267 247 303 264 161 307 253 213 236 233 236 140 136 158 168 173
349 352 334 334 346 343 335 331 7 47 342 315 334 332 1 332 95 186 217 221 208 138 218 248 243 243 225 244 260 251 69 17 305 138 203 307 2 241 223 253 162 161 164 167 165
350 331 329 354 352 351 320 313 34 347 337 296 320 324 277 230 115 174 230 263 232 282 270 220 178 190 208 227 230 214 132 136 184 170 229 242 203 243 239 245 165 174 168 165 167
357 351 351 348 350 318 310 34 321 303 294 314 322 304 223 204 238 193 198 267 276 192 248 290 200 173 193 193 187 185 144 180 250 96 166 191 245 297 282 256 202 170 166 167 167
351 358 6 358 345 349 47 313 348 212 322 309 281 294 330 190 188 209 193 236 253 220 190 296 326 198 214 184 244 224 195 193 213 174 177 208 215 220 217 223 185 151 174 180 184
359 317 350 352 68 85 94 348 314 354 344 315 295 294 294 295 182 182 257 248 199 178 195 243 242 204 179 197 239 274 183 80 217 184 70 182 228 240 229 185 162 151 186 187 178
4 318 347 1 17 38 79 259 7 344 350 289 281 265 275 320 281 201 218 234 191 192 199 287 305 167 217 194 228 250 292 121 130 3 234 164 279 284 293 163 134 133 125 166 177
337 284 350 14 20 358 319 341 79 22 334 351 305 310 319 309 313 193 248 204 178 131 174 324 293 135 257 298 303 275 268 140 112 81 30 61 274 325 130 161 136 144 137 140 151
333 331 337 350 354 344 319 300 352 47 15 337 293 335 343 323 335 349 291 184 147 171 206 122 246 168 194 216 214 252 256 167 109 84 45 258 295 91 174 202 79 72 82 84 92
360 350 10 308 325 309 300 311 344 359 140 34 329 1 340 314 335 1 351 329 132 161 202 162 276 351 212 193 214 237 232 208 128 120 65 292 298 295 357 81 90 89 83 76 72
12 348 322 297 301 299 311 357 329 335 1 6 307 326 319 305 9 310 317 330 311 330 312 21 312 0 288 203 218 221 226 241 162 147 203 292 264 38 68 68 71 85 82 80 85
353 338 307 289 309 333 346 328 341 347 29 208 343 326 310 334 317 286 279 273 266 289 292 358 91 18 293 319 304 211 208 237 165 171 148 97 249 87 68 73 60 69 91 96 96